• Em Portugal
  • Lista de países
  • Para 7 dias
  • Temperatura da água
  • Mapas de satélite
  • Mapa do tempo
  • Widgets de tempo
  • user-avatar
    Iniciar Sessão

    Previsão horária em Escuintla

    Hoje, 13 Dezembro, Quarta-feira

    Tempo Temperatura Precipitação Vento Pressão Humidade
    00:00 +21°C° 0 mm 2 m/s 731 mmHg 69%
    01:00 +21°C° 0 mm 2 m/s 731 mmHg 69%
    02:00 +21°C° 0 mm 2 m/s 731 mmHg 68%
    03:00 +20°C° 0 mm 2 m/s 731 mmHg 68%
    04:00 +20°C° 0 mm 2 m/s 731 mmHg 68%
    05:00 +20°C° 0 mm 2 m/s 731 mmHg 67%
    06:00 +20°C° 0 mm 2 m/s 731 mmHg 67%
    07:00 +23°C° 0 mm 2 m/s 732 mmHg 61%
    08:00 +25°C° 0 mm 2 m/s 732 mmHg 54%
    09:00 +28°C° 0 mm 2 m/s 733 mmHg 48%
    10:00 +29°C° 0 mm 2 m/s 732 mmHg 45%
    11:00 +30°C° 0 mm 2 m/s 732 mmHg 42%
    12:00 +32°C° 0 mm 2 m/s 732 mmHg 38%
    13:00 +32°C° 0 mm 2 m/s 731 mmHg 41%
    14:00 +31°C° 0 mm 2 m/s 730 mmHg 44%
    15:00 +31°C° 0 mm 3 m/s 730 mmHg 47%
    16:00 +29°C° 0 mm 2 m/s 730 mmHg 57%
    17:00 +27°C° 0 mm 2 m/s 730 mmHg 67%
    18:00 +24°C° 0 mm 1 m/s 730 mmHg 77%
    19:00 +24°C° 0 mm 1 m/s 730 mmHg 77%
    20:00 +23°C° 0 mm 2 m/s 731 mmHg 76%
    21:00 +23°C° 0 mm 2 m/s 731 mmHg 75%
    22:00 +23°C° 0 mm 2 m/s 731 mmHg 74%
    23:00 +21°C° 0 mm 2 m/s 731 mmHg 72%

    Amanhã, 14 Dezembro, Quinta-feira

    Tempo Temperatura Precipitação Vento Pressão Humidade
    00:00 +21°C° 0 mm 2 m/s 731 mmHg 71%
    01:00 +21°C° 0 mm 2 m/s 730 mmHg 71%
    02:00 +22°C° 0 mm 1 m/s 730 mmHg 72%
    03:00 +22°C° 0 mm 1 m/s 729 mmHg 72%
    04:00 +22°C° 0 mm 1 m/s 729 mmHg 72%
    05:00 +21°C° 0 mm 1 m/s 729 mmHg 73%
    06:00 +21°C° 0 mm 1 m/s 729 mmHg 73%
    07:00 +24°C° 0 mm 1 m/s 730 mmHg 65%
    08:00 +27°C° 0 mm 1 m/s 730 mmHg 57%
    09:00 +29°C° 0 mm 1 m/s 731 mmHg 49%
    10:00 +31°C° 0 mm 1 m/s 730 mmHg 46%
    11:00 +32°C° 0 mm 2 m/s 730 mmHg 43%
    12:00 +34°C° 0 mm 2 m/s 730 mmHg 39%
    13:00 +34°C° 0 mm 2 m/s 729 mmHg 42%
    14:00 +32°C° 0 mm 2 m/s 728 mmHg 44%
    15:00 +32°C° 0 mm 2 m/s 728 mmHg 46%
    16:00 +30°C° 0 mm 2 m/s 728 mmHg 56%
    17:00 +27°C° 0 mm 1 m/s 728 mmHg 66%
    18:00 +25°C° 0 mm 1 m/s 728 mmHg 76%
    19:00 +25°C° 0 mm 1 m/s 729 mmHg 78%
    20:00 +24°C° 0 mm 1 m/s 729 mmHg 81%
    21:00 +24°C° 0 mm 1 m/s 730 mmHg 83%
    22:00 +23°C° 0 mm 1 m/s 730 mmHg 83%
    23:00 +23°C° 0 mm 1 m/s 730 mmHg 83%

    Depois de amanhã, 15 Dezembro, Sexta-feira

    Tempo Temperatura Precipitação Vento Pressão Humidade
    00:00 +23°C° 0 mm 1 m/s 730 mmHg 83%
    01:00 +23°C° 0 mm 1 m/s 729 mmHg 82%
    02:00 +23°C° 0 mm 1 m/s 729 mmHg 82%
    03:00 +23°C° 0 mm 1 m/s 729 mmHg 81%
    04:00 +22°C° 0 mm 1 m/s 729 mmHg 81%
    05:00 +22°C° 0 mm 1 m/s 729 mmHg 81%
    06:00 +22°C° 0 mm 1 m/s 729 mmHg 80%
    07:00 +25°C° 0 mm 1 m/s 730 mmHg 73%
    08:00 +25°C° 0 mm 0 m/s 730 mmHg 65%
    09:00 +28°C° 0 mm 0 m/s 731 mmHg 57%
    10:00 +31°C° 0 mm 1 m/s 730 mmHg 53%
    11:00 +32°C° 0 mm 1 m/s 730 mmHg 50%
    12:00 +34°C° 0 mm 2 m/s 730 mmHg 46%
    13:00 +34°C° 0 mm 2 m/s 729 mmHg 50%
    14:00 +32°C° 0 mm 2 m/s 728 mmHg 53%
    15:00 +31°C° 0 mm 2 m/s 727 mmHg 57%
    16:00 +29°C° 0 mm 2 m/s 728 mmHg 65%
    17:00 +28°C° 0 mm 1 m/s 728 mmHg 73%
    18:00 +26°C° 0 mm 1 m/s 728 mmHg 81%
    19:00 +25°C° 0 mm 1 m/s 729 mmHg 81%
    20:00 +25°C° 0 mm 1 m/s 729 mmHg 81%
    21:00 +25°C° 0 mm 1 m/s 730 mmHg 81%
    22:00 +25°C° 0 mm 1 m/s 730 mmHg 80%
    23:00 +24°C° 0 mm 1 m/s 730 mmHg 80%

    16 Dezembro, Sábado

    Tempo Temperatura Precipitação Vento Pressão Humidade
    00:00 +24°C° 0 mm 1 m/s 730 mmHg 79%
    01:00 +24°C° 0 mm 1 m/s 730 mmHg 78%
    02:00 +25°C° 0 mm 1 m/s 729 mmHg 78%
    03:00 +25°C° 0 mm 1 m/s 729 mmHg 77%
    04:00 +24°C° 0 mm 1 m/s 729 mmHg 77%
    05:00 +24°C° 0 mm 1 m/s 729 mmHg 77%
    06:00 +24°C° 0 mm 1 m/s 729 mmHg 77%
    07:00 +26°C° 0 mm 1 m/s 730 mmHg 70%
    08:00 +28°C° 0 mm 2 m/s 730 mmHg 63%
    09:00 +30°C° 0 mm 2 m/s 731 mmHg 56%
    10:00 +31°C° 0 mm 2 m/s 731 mmHg 51%
    11:00 +34°C° 0 mm 2 m/s 730 mmHg 47%
    12:00 +35°C° 0 mm 2 m/s 730 mmHg 42%
    13:00 +34°C° 0 mm 2 m/s 729 mmHg 46%
    14:00 +32°C° 0 mm 2 m/s 728 mmHg 50%
    15:00 +31°C° 0 mm 2 m/s 728 mmHg 54%
    16:00 +30°C° 0 mm 2 m/s 728 mmHg 61%
    17:00 +28°C° 0 mm 2 m/s 728 mmHg 69%
    18:00 +26°C° 0 mm 1 m/s 728 mmHg 76%
    19:00 +26°C° 0 mm 1 m/s 729 mmHg 77%
    20:00 +25°C° 0 mm 1 m/s 730 mmHg 77%
    21:00 +25°C° 0 mm 1 m/s 730 mmHg 78%
    22:00 +25°C° 0 mm 1 m/s 730 mmHg 77%
    23:00 +25°C° 0 mm 2 m/s 730 mmHg 76%

    17 Dezembro, Domingo

    Tempo Temperatura Precipitação Vento Pressão Humidade
    00:00 +25°C° 0 mm 2 m/s 730 mmHg 75%
    01:00 +24°C° 0 mm 2 m/s 730 mmHg 75%
    02:00 +24°C° 0 mm 2 m/s 729 mmHg 75%
    03:00 +24°C° 0 mm 2 m/s 729 mmHg 75%
    04:00 +24°C° 0 mm 1 m/s 729 mmHg 75%
    05:00 +24°C° 0 mm 1 m/s 729 mmHg 75%
    06:00 +24°C° 0 mm 1 m/s 730 mmHg 75%
    07:00 +26°C° 0 mm 1 m/s 730 mmHg 68%
    08:00 +28°C° 0 mm 1 m/s 731 mmHg 61%
    09:00 +30°C° 0 mm 1 m/s 731 mmHg 53%
    10:00 +32°C° 0 mm 2 m/s 731 mmHg 47%
    11:00 +34°C° 0 mm 2 m/s 730 mmHg 41%
    12:00 +36°C° 0 mm 2 m/s 729 mmHg 35%
    13:00 +35°C° 0 mm 2 m/s 729 mmHg 37%
    14:00 +35°C° 0 mm 2 m/s 728 mmHg 39%
    15:00 +35°C° 0 mm 3 m/s 727 mmHg 41%
    16:00 +31°C° 0 mm 2 m/s 727 mmHg 52%
    17:00 +29°C° 0 mm 2 m/s 728 mmHg 63%
    18:00 +26°C° 0 mm 1 m/s 728 mmHg 73%
    19:00 +26°C° 0 mm 1 m/s 728 mmHg 73%
    20:00 +25°C° 0 mm 1 m/s 729 mmHg 73%
    21:00 +25°C° 0 mm 1 m/s 730 mmHg 73%
    22:00 +25°C° 0 mm 1 m/s 729 mmHg 73%
    23:00 +25°C° 0 mm 1 m/s 729 mmHg 72%

    18 Dezembro, Segunda-feira

    Tempo Temperatura Precipitação Vento Pressão Humidade
    00:00 +24°C° 0 mm 1 m/s 729 mmHg 72%
    01:00 +24°C° 0 mm 1 m/s 729 mmHg 72%
    02:00 +24°C° 0 mm 1 m/s 729 mmHg 72%
    03:00 +24°C° 0 mm 1 m/s 728 mmHg 72%
    04:00 +24°C° 0 mm 1 m/s 729 mmHg 72%
    05:00 +24°C° 0 mm 1 m/s 729 mmHg 72%
    06:00 +24°C° 0 mm 1 m/s 729 mmHg 72%
    07:00 +26°C° 0 mm 1 m/s 730 mmHg 65%
    08:00 +29°C° 0 mm 1 m/s 730 mmHg 57%
    09:00 +31°C° 0 mm 1 m/s 731 mmHg 50%
    10:00 +32°C° 0 mm 2 m/s 730 mmHg 46%
    11:00 +35°C° 0 mm 2 m/s 730 mmHg 43%
    12:00 +36°C° 0 mm 3 m/s 729 mmHg 39%
    13:00 +35°C° 0 mm 2 m/s 729 mmHg 43%
    14:00 +34°C° 0 mm 2 m/s 728 mmHg 47%
    15:00 +32°C° 0 mm 2 m/s 727 mmHg 50%
    16:00 +30°C° 0 mm 2 m/s 728 mmHg 57%
    17:00 +29°C° 0 mm 2 m/s 728 mmHg 64%
    18:00 +27°C° 0 mm 1 m/s 728 mmHg 70%
    19:00 +26°C° 0 mm 1 m/s 729 mmHg 72%
    20:00 +26°C° 0 mm 1 m/s 730 mmHg 73%
    21:00 +25°C° 0 mm 1 m/s 730 mmHg 74%
    22:00 +25°C° 0 mm 1 m/s 730 mmHg 75%
    23:00 +25°C° 0 mm 1 m/s 730 mmHg 75%
    Mostrar mais